Location: Marysville Observatory
(48.1092°N, 122.1645°W)
Time: 05:40:40
(UTC-07:00)

Amateur Radio Satellites - All Passes

Search period start: 29 June 2016 05:10
Search period end: 30 June 2016 05:10
Location: Marysville Observatory, 48.1092°N, 122.1645°W

Satellite Date Start Highest point End Downlink Frequencies (MHz)
Time Altitude Azimuth
STARS 29 Jun 05:15:41 05:19:33 31° 264° (W) 05:23:29 437.465
PCSat 29 Jun 05:21:38 05:25:16 18° 331° (NNW) 05:28:56 145.827
AO-7 29 Jun 05:24:53 05:33:21 87° 110° (ESE) 05:41:45 29.400- 29.500
AIST 2 29 Jun 05:27:25 05:31:23 49° 122° (ESE) 05:35:24 435.215
AIST 1 29 Jun 05:33:11 05:36:37 24° 272° (W) 05:40:02
Cosmos 2499 29 Jun 05:37:54 05:46:24 47° 70° (ENE) 05:54:25 435.465 / 435.565
BEESAT 3 29 Jun 05:42:01 05:43:47 13° 335° (NNW) 05:45:34 437.485
ITAMSAT 1 29 Jun 05:48:04 05:51:52 21° 302° (WNW) 05:55:41 435.822/435.867
HORYU 2 29 Jun 05:57:15 06:01:42 55° 101° (ESE) 06:06:07 437.375
STRAND 1 29 Jun 06:08:21 06:12:10 22° 59° (ENE) 06:16:02 437.568
CUBESAT XI-V 29 Jun 06:08:31 06:13:02 45° 262° (W) 06:17:34 437.345
GONETS M04 29 Jun 06:08:37 06:17:24 89° 79° (E) 06:26:10
AO-85 29 Jun 06:12:37 06:17:19 81° 51° (NE) 06:21:34 145.980
NOAA 18 29 Jun 06:19:17 06:23:05 18° 90° (E) 06:26:52 137.9125
Cubesat XI-IV 29 Jun 06:19:37 06:23:05 17° 89° (E) 06:26:31 437.490
BEESAT 2 29 Jun 06:22:04 06:23:15 11° 338° (NNW) 06:24:27 435.950
CUSAT 1 29 Jun 06:22:27 06:26:51 17° 84° (E) 06:30:49 437.405
BRITE-PL 29 Jun 06:33:48 06:37:15 25° 94° (E) 06:40:42 437.365/2234.400
LilacSat-2 29 Jun 06:48:13 06:51:27 24° 94° (E) 06:54:41 437.200
DANDE 29 Jun 06:50:54 06:55:44 17° 80° (E) 07:00:18 436.750
CUTE-I 29 Jun 06:52:50 06:57:39 32° 95° (E) 07:02:26 437.470
GOMX 1 29 Jun 07:03:45 07:07:12 24° 94° (E) 07:10:43 467.674
AIST 2 29 Jun 07:06:33 07:10:05 27° 322° (NW) 07:13:39 435.215
PCSat 29 Jun 07:11:02 07:11:04 10° 358° (N) 07:11:06 145.827
PRISM 29 Jun 07:18:04 07:20:04 13° 58° (ENE) 07:22:04 437.425
AO-7 29 Jun 07:18:29 07:25:15 28° 311° (NW) 07:32:00 29.400- 29.500
NOAA 15 29 Jun 07:18:34 07:23:50 69° 103° (ESE) 07:29:03 137.62
Cosmos 2499 29 Jun 07:31:17 07:39:34 47° 273° (W) 07:47:25 435.465 / 435.565
HORYU 2 29 Jun 07:34:38 07:37:53 20° 299° (WNW) 07:41:08 437.375
STRAND 1 29 Jun 07:45:48 07:50:55 64° 258° (WSW) 07:56:04 437.568
AO-85 29 Jun 07:54:43 07:57:01 14° 252° (WSW) 07:59:13 145.980
CANX-2 29 Jun 07:56:24 07:58:16 13° 87° (E) 08:00:07 2200.000
Cubesat XI-IV 29 Jun 07:58:21 08:03:46 77° 287° (WNW) 08:09:08 437.490
HO-68 29 Jun 07:58:24 08:03:32 20° 89° (E) 08:08:38 435.675
NOAA 18 29 Jun 07:58:46 08:04:20 75° 288° (WNW) 08:09:52 137.9125
DOVE 4 29 Jun 07:59:50 08:03:57 42° 98° (E) 08:08:15 437.250
CUSAT 1 29 Jun 08:00:41 08:08:19 80° 100° (E) 08:14:35 437.405
GONETS M04 29 Jun 08:06:51 08:13:03 22° 283° (WNW) 08:19:17
BRITE-PL 29 Jun 08:12:07 08:15:52 33° 292° (WNW) 08:19:35 437.365/2234.400
CUTE 1.7 + AOD 2 29 Jun 08:15:26 08:18:19 17° 90° (E) 08:21:10 437.475
PHONESAT 2.4 29 Jun 08:16:59 08:19:05 17° 170° (S) 08:21:11 2401.200-2431.200
SEEDS 29 Jun 08:18:35 08:20:43 14° 88° (E) 08:22:51 437.485
LilacSat-2 29 Jun 08:22:21 08:25:47 31° 292° (WNW) 08:29:13 437.200
DANDE 29 Jun 08:29:14 08:37:35 71° 97° (E) 08:45:03 436.750
CUTE-I 29 Jun 08:32:46 08:37:48 42° 294° (WNW) 08:42:49 437.470
GOMX 1 29 Jun 08:41:35 08:45:25 36° 291° (WNW) 08:49:22 467.674
CUBEBUG 2 29 Jun 08:43:01 08:45:27 14° 88° (E) 08:47:52 437.445
CINEMA 3 29 Jun 08:49:42 08:54:04 44° 99° (E) 08:58:34 145.822/145.860
PRISM 29 Jun 08:50:40 08:54:49 78° 256° (WSW) 08:58:59 437.425
PCSat 29 Jun 08:53:48 08:56:58 15° 24° (NNE) 09:00:08 145.827
AAUSAT CUBESAT 2 29 Jun 08:54:50 08:57:46 18° 91° (E) 09:00:41 437.432
NOAA 15 29 Jun 08:59:18 09:03:08 21° 302° (WNW) 09:06:56 137.62
ANTELSAT 29 Jun 09:00:32 09:02:22 12° 56° (NE) 09:04:12 437.575/2403.000
BEESAT 3 29 Jun 09:01:30 09:02:53 11° 23° (NNE) 09:04:17 437.485
ZACube-1 29 Jun 09:06:51 09:08:08 11° 86° (E) 09:09:24 437.345
M-CUBED/EXP-1 PRIME 29 Jun 09:13:49 09:15:06 11° 96° (E) 09:16:24 437.505
Oscar 11 29 Jun 09:14:32 09:16:35 13° 88° (E) 09:18:39 145.826/435.025
FUNcube-1 29 Jun 09:22:46 09:25:28 15° 89° (E) 09:28:09 145.935
ISS 29 Jun 09:24:46 09:27:49 37° 146° (SSE) 09:30:53 145.825
UWE-3 29 Jun 09:27:38 09:31:31 26° 94° (E) 09:35:24 435.000/436.395/437.385
COMPASS 1 29 Jun 09:28:57 09:33:03 50° 99° (E) 09:37:07 437.405
CANX-2 29 Jun 09:30:21 09:34:39 74° 287° (WNW) 09:38:55 2200.000
Cosmos 2491 29 Jun 09:35:48 09:39:30 13° 45° (NE) 09:43:11 435.465 / 435.565
DOVE 4 29 Jun 09:38:07 09:41:29 23° 295° (WNW) 09:44:57 437.250
Cubesat XI-IV 29 Jun 09:40:08 09:42:59 15° 307° (NW) 09:45:50 437.490
BEESAT 2 29 Jun 09:40:35 09:42:39 14° 27° (NNE) 09:44:45 435.950
NOAA 18 29 Jun 09:41:07 09:44:06 15° 308° (NW) 09:47:06 137.9125
HO-68 29 Jun 09:44:54 09:52:10 88° 290° (WNW) 09:59:23 435.675
CUSAT 1 29 Jun 09:45:11 09:50:51 24° 295° (WNW) 09:55:46 437.405
TIGRISAT 29 Jun 09:49:26 09:53:15 31° 66° (ENE) 09:57:10 435.000
CUTE 1.7 + AOD 2 29 Jun 09:50:17 09:54:29 53° 288° (WNW) 09:58:38 437.475
SEEDS 29 Jun 09:52:40 09:56:55 67° 286° (WNW) 10:01:05 437.485
PHONESAT 2.4 29 Jun 09:52:51 09:55:06 19° 186° (S) 09:57:22 2401.200-2431.200
UNISAT 6 29 Jun 09:54:40 09:58:39 37° 68° (ENE) 10:02:44 437.425
AUBIESAT-1 29 Jun 10:06:14 10:09:49 33° 104° (ESE) 10:13:35 437.475
POPSAT HIP 1 29 Jun 10:07:03 10:07:32 10° 56° (NE) 10:08:01 437.405
HUMSAT D 29 Jun 10:12:13 10:13:56 12° 87° (E) 10:15:38 437.325/437.525
DANDE 29 Jun 10:13:38 10:20:54 32° 295° (WNW) 10:27:27 436.750
QB50P2 29 Jun 10:17:42 10:19:54 14° 59° (ENE) 10:22:06 145.880/145.840
CUBEBUG 2 29 Jun 10:17:58 10:22:34 77° 285° (WNW) 10:27:16 437.445
DUCHIFAT 1 29 Jun 10:19:02 10:20:45 12° 58° (ENE) 10:22:29 145.980
POLYITAN 1 29 Jun 10:20:16 10:22:30 14° 59° (ENE) 10:24:46 437.675
RS-15 29 Jun 10:21:43 10:28:39 18° 95° (E) 10:35:44 29.354- 29.394
CINEMA 3 29 Jun 10:27:22 10:31:00 24° 295° (WNW) 10:34:45 145.822/145.860
AAUSAT CUBESAT 2 29 Jun 10:29:30 10:33:32 47° 289° (WNW) 10:37:31 437.432
DELFI C3 29 Jun 10:33:56 10:37:41 37° 97° (E) 10:41:23 145.870
ANTELSAT 29 Jun 10:34:01 10:38:21 89° 86° (E) 10:42:50 437.575/2403.000
PCSat 29 Jun 10:36:29 10:41:45 47° 48° (NE) 10:46:59 145.827
BEESAT 3 29 Jun 10:37:48 10:41:35 42° 45° (NE) 10:45:22 437.485
ZACube-1 29 Jun 10:40:30 10:45:04 88° 104° (ESE) 10:49:40 437.345
M-CUBED/EXP-1 PRIME 29 Jun 10:46:10 10:50:00 78° 291° (WNW) 10:54:09 437.505
Oscar 11 29 Jun 10:48:53 10:53:15 73° 287° (WNW) 10:57:35 145.826/435.025
FUNcube-1 29 Jun 10:57:38 11:02:09 68° 286° (WNW) 11:06:42 145.935
JAS-2 29 Jun 11:00:30 11:05:30 20° 55° (NE) 11:10:11 435.910
ISS 29 Jun 11:00:58 11:04:12 57° 346° (NNW) 11:07:26 145.825
UWE-3 29 Jun 11:03:48 11:08:05 40° 291° (WNW) 11:12:25 435.000/436.395/437.385
COMPASS 1 29 Jun 11:05:18 11:08:18 19° 297° (WNW) 11:11:15 437.405
CANX-2 29 Jun 11:09:14 11:09:43 10° 304° (NW) 11:10:13 2200.000
BUGSAT 1 29 Jun 11:10:01 11:12:45 18° 62° (ENE) 11:15:29 437.445
O/OREOS (USA 219) 29 Jun 11:11:15 11:14:20 18° 46° (NE) 11:17:24 437.305
BEESAT 2 29 Jun 11:17:24 11:21:22 56° 48° (NE) 11:25:17 435.950
YUBILEINY 29 Jun 11:24:13 11:29:09 17° 72° (ENE) 11:34:05 435.215
TIGRISAT 29 Jun 11:26:09 11:29:57 30° 265° (W) 11:33:51 435.000
Cosmos 2491 29 Jun 11:30:30 11:38:58 51° 72° (ENE) 11:47:23 435.465 / 435.565
NANOSAT C BR1 29 Jun 11:31:34 11:35:42 63° 72° (ENE) 11:39:52 145.865
UNISAT 6 29 Jun 11:31:53 11:35:29 25° 267° (W) 11:39:11 437.425
HO-68 29 Jun 11:33:40 11:39:00 23° 309° (NW) 11:44:19 435.675
QB50P1 29 Jun 11:35:05 11:39:15 72° 74° (ENE) 11:43:27 145.935-145.965
POPSAT HIP 1 29 Jun 11:38:23 11:42:34 77° 74° (ENE) 11:46:47 437.405
AUBIESAT-1 29 Jun 11:40:55 11:44:13 27° 299° (WNW) 11:47:41 437.475
HUMSAT D 29 Jun 11:45:47 11:50:07 79° 284° (WNW) 11:54:26 437.325/437.525
Oscar 19 29 Jun 11:49:46 11:51:57 13° 53° (NE) 11:54:08 437.125/150
QB50P2 29 Jun 11:50:57 11:55:09 74° 257° (WSW) 11:59:24 145.880/145.840
DUCHIFAT 1 29 Jun 11:51:40 11:55:49 85° 256° (WSW) 12:00:03 145.980
ESTCUBE 1 29 Jun 11:51:51 11:55:33 24° 93° (E) 11:59:13 437.505/2401.250
AISAT 29 Jun 11:52:45 11:55:33 16° 90° (E) 11:58:20 437.250
POLYITAN 1 29 Jun 11:53:36 11:57:47 73° 257° (WSW) 12:02:01 437.675
CUBEBUG 2 29 Jun 11:56:49 11:58:27 12° 304° (WNW) 12:00:06 437.445
AIST 2 29 Jun 12:07:30 12:10:35 20° 33° (NNE) 12:13:41 435.215
DELFI C3 29 Jun 12:09:13 12:12:21 22° 295° (WNW) 12:15:28 145.870
DX 1 29 Jun 12:09:19 12:12:16 18° 91° (E) 12:15:12 434.975-435.025
ANTELSAT 29 Jun 12:14:51 12:15:47 11° 274° (W) 12:16:44 437.575/2403.000
Gurwin Techsat 1B 29 Jun 12:15:44 12:16:45 11° 50° (NE) 12:17:46 435.225
BEESAT 3 29 Jun 12:15:50 12:19:06 25° 244° (WSW) 12:22:21 437.485
ZACube-1 29 Jun 12:18:27 12:20:43 14° 302° (WNW) 12:23:00 437.345
PCSat 29 Jun 12:20:11 12:25:01 33° 248° (WSW) 12:29:49 145.827
M-CUBED/EXP-1 PRIME 29 Jun 12:23:25 12:24:01 10° 307° (NW) 12:24:39 437.505
RS-15 29 Jun 12:27:17 12:38:35 69° 119° (ESE) 12:50:32 29.354- 29.394
Oscar 11 29 Jun 12:27:55 12:28:35 10° 305° (NW) 12:29:16 145.826/435.025
50 SAT 29 Jun 12:33:19 12:36:52 40° 99° (E) 12:40:21 437.505
CUBEBUG 1 29 Jun 12:36:28 12:40:38 45° 99° (E) 12:44:47 437.445
FUNcube-1 29 Jun 12:36:54 12:37:34 10° 305° (NW) 12:38:13 145.935
ISS 29 Jun 12:37:49 12:40:58 44° 5° (N) 12:44:07 145.825
JAS-2 29 Jun 12:42:12 12:49:45 81° 73° (ENE) 12:56:34 435.910
BUGSAT 1 29 Jun 12:43:54 12:47:48 49° 260° (W) 12:51:43 437.445
VELOX 1 29 Jun 12:47:04 12:51:23 52° 100° (E) 12:55:40 145.980
AO-7 29 Jun 12:49:06 12:52:53 14° 33° (NNE) 12:56:40 29.400- 29.500
O/OREOS (USA 219) 29 Jun 12:49:47 12:54:16 73° 248° (WSW) 12:58:45 437.305
BEESAT 2 29 Jun 12:56:03 12:58:49 18° 247° (WSW) 13:01:35 435.950
TISAT 1 29 Jun 13:05:48 13:06:36 10° 87° (E) 13:07:24 437.305
NANOSAT C BR1 29 Jun 13:09:37 13:11:52 14° 271° (W) 13:14:08 145.865
QB50P1 29 Jun 13:13:44 13:15:33 12° 272° (W) 13:17:21 145.935-145.965
YUBILEINY 29 Jun 13:15:40 13:24:18 73° 95° (E) 13:33:04 435.215
POPSAT HIP 1 29 Jun 13:17:24 13:18:54 12° 272° (W) 13:20:25 437.405
SPROUT 29 Jun 13:22:10 13:26:24 57° 100° (E) 13:30:38 437.525
UKube-1 29 Jun 13:22:36 13:26:56 76° 104° (ESE) 13:31:14 .
HUMSAT D 29 Jun 13:23:51 13:24:59 11° 304° (NW) 13:26:07 437.325/437.525
Oscar 19 29 Jun 13:25:16 13:30:24 71° 72° (ENE) 13:35:32 437.125/150
Cosmos 2491 29 Jun 13:27:42 13:35:40 42° 274° (W) 13:43:37 435.465 / 435.565
AISAT 29 Jun 13:28:05 13:32:25 59° 288° (WNW) 13:36:44 437.250
ESTCUBE 1 29 Jun 13:28:17 13:32:31 40° 292° (WNW) 13:36:43 437.505/2401.250
DX 1 29 Jun 13:44:33 13:48:47 53° 289° (WNW) 13:53:00 434.975-435.025
AIST 2 29 Jun 13:45:25 13:49:36 82° 235° (SW) 13:53:45 435.215
Cosmos 2504 29 Jun 13:45:47 13:53:16 40° 85° (E) 14:01:09 435.465 / 435.565
Gurwin Techsat 1B 29 Jun 13:50:25 13:55:36 56° 69° (ENE) 14:00:48 435.225
ITAMSAT 1 29 Jun 13:51:15 13:55:23 25° 60° (ENE) 13:59:34 435.822/435.867
50 SAT 29 Jun 14:07:42 14:10:16 18° 297° (WNW) 14:12:49 437.505
CUBEBUG 1 29 Jun 14:13:22 14:16:40 22° 297° (WNW) 14:19:58 437.445
ISS 29 Jun 14:14:19 14:17:36 80° 204° (SSW) 14:20:52 145.825
VELOX 1 29 Jun 14:24:19 14:27:30 20° 299° (WNW) 14:30:41 145.980
BEESAT 29 Jun 14:25:08 14:28:04 16° 89° (E) 14:30:57 436.000
ITUPSAT 1 29 Jun 14:26:51 14:29:51 16° 90° (E) 14:32:48 437.325
JAS-2 29 Jun 14:29:38 14:35:20 23° 270° (W) 14:40:42 435.910
AO-7 29 Jun 14:35:50 14:43:31 43° 57° (ENE) 14:51:15 29.400- 29.500
TISAT 1 29 Jun 14:38:38 14:42:52 86° 282° (WNW) 14:47:05 437.305
RS-15 29 Jun 14:40:27 14:51:46 52° 327° (NNW) 15:03:42 29.354- 29.394
SPROUT 29 Jun 14:59:05 15:01:58 18° 299° (WNW) 15:04:52 437.525
UKube-1 29 Jun 15:00:06 15:02:26 14° 302° (WNW) 15:04:44 .
SO-50 29 Jun 15:01:10 15:03:29 13° 108° (ESE) 15:05:48 436.795
Oscar 19 29 Jun 15:06:54 15:10:15 17° 271° (W) 15:13:38 437.125/150
YUBILEINY 29 Jun 15:14:33 15:21:59 30° 298° (WNW) 15:29:31 435.215
HORYU 2 29 Jun 15:25:34 15:27:06 12° 55° (NE) 15:28:37 437.375
AIST 2 29 Jun 15:26:39 15:27:22 10° 252° (WSW) 15:28:05 435.215
ITAMSAT 1 29 Jun 15:29:23 15:34:30 56° 259° (W) 15:39:41 435.822/435.867
Gurwin Techsat 1B 29 Jun 15:31:41 15:35:53 23° 268° (W) 15:40:07 435.225
SWISSCUBE 29 Jun 15:36:21 15:41:12 77° 105° (ESE) 15:45:59 437.505
Cosmos 2504 29 Jun 15:38:21 15:46:24 54° 287° (WNW) 15:55:00 435.465 / 435.565
ISS 29 Jun 15:51:31 15:53:38 16° 223° (SW) 15:55:44 145.825
BEESAT 29 Jun 16:01:34 16:06:22 71° 288° (WNW) 16:11:08 436.000
ITUPSAT 1 29 Jun 16:03:22 16:08:11 70° 287° (WNW) 16:12:57 437.325
TISAT 1 29 Jun 16:16:29 16:17:50 11° 303° (WNW) 16:19:11 437.305
AO-7 29 Jun 16:28:00 16:36:07 55° 258° (WSW) 16:44:20 29.400- 29.500
AIST 1 29 Jun 16:29:24 16:32:14 17° 85° (E) 16:35:05
MOZHAYETS 4 29 Jun 16:30:35 16:34:47 32° 95° (E) 16:38:56
KKS-1 29 Jun 16:31:58 16:36:02 34° 97° (E) 16:40:05 437.445
SO-50 29 Jun 16:38:20 16:43:15 82° 126° (SE) 16:48:08 436.795
CUTE-I 29 Jun 16:41:39 16:44:14 14° 52° (NE) 16:46:51 437.470
RS-15 29 Jun 16:56:59 17:07:46 36° 360° (N) 17:18:52 29.354- 29.394
HORYU 2 29 Jun 16:58:28 17:02:53 79° 74° (ENE) 17:07:23 437.375
STARS 29 Jun 17:00:54 17:04:57 35° 97° (E) 17:08:59 437.465
NOAA 15 29 Jun 17:03:54 17:08:10 26° 61° (ENE) 17:12:28 137.62
SWISSCUBE 29 Jun 17:15:23 17:18:25 17° 302° (WNW) 17:21:25 437.505
GONETS M04 29 Jun 17:20:34 17:26:39 22° 76° (ENE) 17:32:43
LilacSat-2 29 Jun 17:33:59 17:36:52 21° 65° (ENE) 17:39:47 437.200
Cosmos 2504 29 Jun 17:38:03 17:42:18 14° 313° (NW) 17:46:40 435.465 / 435.565
BEESAT 29 Jun 17:41:41 17:43:17 12° 307° (NW) 17:44:54 436.000
ITUPSAT 1 29 Jun 17:43:34 17:45:09 11° 307° (NW) 17:46:43 437.325
Cubesat XI-IV 29 Jun 17:44:34 17:49:31 39° 65° (ENE) 17:54:30 437.490
BRITE-PL 29 Jun 17:47:28 17:52:11 48° 71° (ENE) 17:56:34 437.365/2234.400
NOAA 18 29 Jun 17:48:37 17:53:51 48° 66° (ENE) 17:59:08 137.9125
CUBESAT XI-V 29 Jun 18:01:24 18:05:38 34° 96° (E) 18:09:49 437.345
AIST 1 29 Jun 18:05:15 18:09:27 49° 284° (WNW) 18:13:39
MOZHAYETS 4 29 Jun 18:07:47 18:11:56 33° 294° (WNW) 18:16:03
KKS-1 29 Jun 18:08:41 18:12:32 29° 295° (WNW) 18:16:22 437.445
GOMX 1 29 Jun 18:15:14 18:19:26 40° 70° (ENE) 18:23:27 467.674
CUTE-I 29 Jun 18:18:03 18:23:23 73° 72° (ENE) 18:28:46 437.470
Cosmos 2499 29 Jun 18:18:46 18:26:03 34° 82° (E) 18:33:38 435.465 / 435.565
SO-50 29 Jun 18:20:19 18:24:18 24° 327° (NNW) 18:28:15 436.795
AO-7 29 Jun 18:29:13 18:30:53 11° 279° (W) 18:32:34 29.400- 29.500
HO-68 29 Jun 18:31:22 18:36:55 25° 52° (NE) 18:42:29 435.675
CUSAT 1 29 Jun 18:33:58 18:37:48 58° 74° (ENE) 18:40:49 437.405
STARS 29 Jun 18:37:27 18:41:13 28° 295° (WNW) 18:44:59 437.465
HORYU 2 29 Jun 18:38:08 18:40:02 12° 272° (W) 18:41:57 437.375
NOAA 15 29 Jun 18:42:28 18:47:39 54° 259° (W) 18:52:51 137.62
CANX-2 29 Jun 18:52:31 18:55:04 16° 60° (ENE) 18:57:38 2200.000
LilacSat-2 29 Jun 19:07:29 19:10:59 35° 263° (W) 19:14:32 437.200
DANDE 29 Jun 19:07:50 19:13:01 57° 72° (ENE) 19:16:50 436.750
DOVE 4 29 Jun 19:08:58 19:13:11 64° 74° (ENE) 19:17:19 437.250
CUTE 1.7 + AOD 2 29 Jun 19:11:31 19:14:41 20° 63° (ENE) 19:17:53 437.475
RS-15 29 Jun 19:11:57 19:23:51 52° 33° (NNE) 19:35:47 29.354- 29.394
GONETS M04 29 Jun 19:13:32 19:22:15 90° 87° (E) 19:31:00
SEEDS 29 Jun 19:13:44 19:16:24 16° 61° (ENE) 19:19:03 437.485
Cubesat XI-IV 29 Jun 19:24:48 19:29:38 34° 264° (W) 19:34:32 437.490
BRITE-PL 29 Jun 19:27:01 19:30:52 23° 267° (W) 19:34:32 437.365/2234.400
NOAA 18 29 Jun 19:30:03 19:34:44 29° 265° (W) 19:39:28 137.9125
CUBESAT XI-V 29 Jun 19:38:54 19:42:58 31° 294° (WNW) 19:46:59 437.345
CUBEBUG 2 29 Jun 19:44:53 19:47:36 17° 60° (ENE) 19:50:21 437.445
AAUSAT CUBESAT 2 29 Jun 19:48:31 19:51:38 21° 63° (ENE) 19:54:47 437.432
STRAND 1 29 Jun 19:52:50 19:57:30 33° 96° (E) 20:02:07 437.568
GOMX 1 29 Jun 19:54:04 19:57:41 23° 266° (W) 20:01:10 467.674
CINEMA 3 29 Jun 19:55:04 19:59:07 57° 72° (ENE) 20:03:15 145.822/145.860
CUTE-I 29 Jun 20:00:23 20:04:00 18° 271° (W) 20:07:39 437.470
M-CUBED/EXP-1 PRIME 29 Jun 20:03:11 20:05:44 21° 60° (ENE) 20:08:20 437.505
SO-50 29 Jun 20:04:49 20:06:30 12° 351° (N) 20:08:11 436.795
ZACube-1 29 Jun 20:06:00 20:08:10 14° 58° (ENE) 20:10:21 437.345
Cosmos 2499 29 Jun 20:10:13 20:18:36 65° 284° (WNW) 20:27:28 435.465 / 435.565
Oscar 11 29 Jun 20:12:32 20:15:21 17° 61° (ENE) 20:18:12 145.826/435.025
HO-68 29 Jun 20:16:42 20:23:52 84° 252° (WSW) 20:31:08 435.675
FUNcube-1 29 Jun 20:21:56 20:24:50 18° 61° (ENE) 20:27:47 145.935
COMPASS 1 29 Jun 20:22:46 20:26:52 53° 72° (ENE) 20:31:00 437.405
CANX-2 29 Jun 20:26:10 20:30:26 68° 259° (WSW) 20:34:45 2200.000
UWE-3 29 Jun 20:28:13 20:31:55 30° 66° (ENE) 20:35:42 435.000/436.395/437.385
PRISM 29 Jun 20:31:04 20:32:06 11° 88° (E) 20:33:07 437.425
AO-85 29 Jun 20:31:55 20:34:36 14° 108° (ESE) 20:37:16 145.980
CUTE 1.7 + AOD 2 29 Jun 20:46:05 20:50:14 48° 261° (W) 20:54:25 437.475
SEEDS 29 Jun 20:47:24 20:51:38 63° 259° (W) 20:55:53 437.485
DOVE 4 29 Jun 20:49:11 20:51:20 14° 271° (W) 20:53:29 437.250
DANDE 29 Jun 20:52:10 20:54:52 15° 282° (WNW) 20:57:13 436.750
AUBIESAT-1 29 Jun 20:56:10 20:59:27 74° 69° (ENE) 21:02:50 437.475
HUMSAT D 29 Jun 21:06:57 21:09:14 14° 59° (ENE) 21:11:32 437.325/437.525
GONETS M04 29 Jun 21:13:40 21:20:23 24° 302° (WNW) 21:27:09
CUBEBUG 2 29 Jun 21:19:38 21:23:46 59° 259° (W) 21:28:03 437.445
AAUSAT CUBESAT 2 29 Jun 21:22:49 21:26:51 45° 261° (W) 21:30:55 437.432
DELFI C3 29 Jun 21:23:04 21:26:46 36° 69° (ENE) 21:30:29 145.870
RS-15 29 Jun 21:24:59 21:37:12 72° 240° (WSW) 21:49:20 29.354- 29.394
YUBILEINY 29 Jun 21:27:27 21:29:57 11° 42° (NE) 21:32:27 435.215
STRAND 1 29 Jun 21:31:59 21:36:43 38° 294° (WNW) 21:41:26 437.568
CINEMA 3 29 Jun 21:34:19 21:36:42 15° 271° (W) 21:39:06 145.822/145.860
M-CUBED/EXP-1 PRIME 29 Jun 21:37:28 21:40:15 26° 258° (WSW) 21:43:06 437.505
ZACube-1 29 Jun 21:39:36 21:43:50 78° 257° (WSW) 21:48:12 437.345
SO-50 29 Jun 21:46:41 21:49:04 14° 17° (NNE) 21:51:26 436.795
Oscar 11 29 Jun 21:46:45 21:51:03 62° 259° (W) 21:55:24 145.826/435.025
FUNcube-1 29 Jun 21:56:31 22:00:40 56° 260° (W) 22:04:57 145.935
COMPASS 1 29 Jun 21:59:59 22:02:45 17° 270° (W) 22:05:33 437.405
PRISM 29 Jun 22:03:52 22:07:58 79° 287° (WNW) 22:12:02 437.425
UWE-3 29 Jun 22:04:38 22:08:21 30° 265° (W) 22:12:11 435.000/436.395/437.385
HO-68 29 Jun 22:08:04 22:12:39 18° 273° (W) 22:17:17 435.675
Cosmos 2499 29 Jun 22:08:22 22:13:49 18° 309° (NW) 22:19:24 435.465 / 435.565
AO-85 29 Jun 22:08:59 22:14:23 77° 126° (SE) 22:19:34 145.980
VELOX 1 29 Jun 22:15:25 22:16:14 10° 55° (NE) 22:17:04 145.980
ANTELSAT 29 Jun 22:23:03 22:25:54 16° 89° (E) 22:28:44 437.575/2403.000
HUMSAT D 29 Jun 22:40:08 22:44:18 73° 257° (WSW) 22:48:35 437.325/437.525
UKube-1 29 Jun 22:46:59 22:49:08 14° 58° (ENE) 22:51:18 .
AISAT 29 Jun 22:53:18 22:56:49 24° 63° (ENE) 23:00:20 437.250
ESTCUBE 1 29 Jun 22:54:32 22:58:39 35° 67° (ENE) 23:02:46 437.505/2401.250
DELFI C3 29 Jun 22:58:30 23:01:44 23° 267° (W) 23:04:58 145.870
DX 1 29 Jun 23:08:01 23:11:34 25° 64° (ENE) 23:15:07 434.975-435.025
TIGRISAT 29 Jun 23:13:05 23:17:31 43° 98° (E) 23:22:00 435.000
50 SAT 29 Jun 23:14:29 23:17:51 32° 68° (ENE) 23:21:13 437.505
UNISAT 6 29 Jun 23:18:40 23:23:13 51° 100° (E) 23:27:48 437.425
YUBILEINY 29 Jun 23:21:21 23:29:45 45° 69° (ENE) 23:38:06 435.215
SO-50 29 Jun 23:26:33 23:30:56 36° 40° (NE) 23:35:11 436.795
QB50P2 29 Jun 23:33:37 23:35:57 14° 89° (E) 23:38:16 145.880/145.840
Cosmos 2504 29 Jun 23:33:41 23:40:04 21° 54° (NE) 23:46:19 435.465 / 435.565
DUCHIFAT 1 29 Jun 23:34:03 23:35:44 12° 88° (E) 23:37:23 145.980
CUBEBUG 1 29 Jun 23:35:34 23:39:50 59° 72° (ENE) 23:44:07 437.445
POLYITAN 1 29 Jun 23:36:11 23:38:35 15° 89° (E) 23:41:00 437.675
RS-15 29 Jun 23:39:25 23:47:25 21° 264° (W) 23:55:24 29.354- 29.394
PRISM 29 Jun 23:42:13 23:42:33 10° 304° (NW) 23:42:54 437.425
VELOX 1 29 Jun 23:47:31 23:51:55 73° 73° (ENE) 23:56:19 145.980
AO-85 29 Jun 23:50:52 23:55:23 27° 325° (NW) 23:59:43 145.980
ANTELSAT 29 Jun 23:58:25 00:03:03 69° 287° (WNW) 00:07:44 437.575/2403.000
TISAT 1 30 Jun 00:00:18 00:02:29 14° 59° (ENE) 00:04:40 437.305
SPROUT 30 Jun 00:18:54 00:23:07 68° 73° (ENE) 00:27:21 437.525
UKube-1 30 Jun 00:20:16 00:24:35 81° 254° (WSW) 00:28:56 .
BUGSAT 1 30 Jun 00:22:40 00:25:29 18° 92° (E) 00:28:18 437.445
AISAT 30 Jun 00:28:54 00:33:05 42° 262° (W) 00:37:17 437.250
ESTCUBE 1 30 Jun 00:31:32 00:35:29 29° 265° (W) 00:39:28 437.505/2401.250
Cosmos 2491 30 Jun 00:36:03 00:44:23 51° 89° (E) 00:52:43 435.465 / 435.565
DX 1 30 Jun 00:43:31 00:47:35 39° 262° (W) 00:51:41 434.975-435.025
NANOSAT C BR1 30 Jun 00:47:52 00:52:07 72° 102° (ESE) 00:56:22 145.865
50 SAT 30 Jun 00:48:41 00:51:36 21° 266° (W) 00:54:31 437.505
TIGRISAT 30 Jun 00:50:11 00:54:00 26° 296° (WNW) 00:57:51 435.000
QB50P1 30 Jun 00:51:46 00:56:03 83° 103° (ESE) 01:00:20 145.935-145.965
POPSAT HIP 1 30 Jun 00:55:09 00:59:26 88° 103° (ESE) 01:03:43 437.405
UNISAT 6 30 Jun 00:56:03 00:59:37 22° 298° (WNW) 01:03:14 437.425
SO-50 30 Jun 01:07:06 01:11:30 41° 240° (WSW) 01:15:45 436.795
DUCHIFAT 1 30 Jun 01:07:42 01:11:57 76° 286° (WNW) 01:16:11 145.980
QB50P2 30 Jun 01:07:56 01:12:11 65° 287° (WNW) 01:16:25 145.880/145.840
SWISSCUBE 30 Jun 01:10:13 01:13:37 20° 59° (ENE) 01:17:03 437.505
POLYITAN 1 30 Jun 01:10:34 01:14:49 64° 288° (WNW) 01:19:03 437.675
CUBEBUG 1 30 Jun 01:13:47 01:16:31 16° 270° (W) 01:19:14 437.445
YUBILEINY 30 Jun 01:18:19 01:26:41 50° 272° (W) 01:35:02 435.215
PCSat 30 Jun 01:23:25 01:27:06 19° 106° (ESE) 01:30:47 145.827
Cosmos 2504 30 Jun 01:26:12 01:35:10 77° 79° (E) 01:43:45 435.465 / 435.565
VELOX 1 30 Jun 01:26:42 01:28:54 13° 271° (W) 01:31:05 145.980
TISAT 1 30 Jun 01:33:27 01:37:36 73° 258° (WSW) 01:41:48 437.305
JAS-2 30 Jun 01:33:54 01:39:25 48° 98° (E) 01:44:28 435.910
Oscar 19 30 Jun 01:34:04 01:37:40 19° 90° (E) 01:41:14 437.125/150
BEESAT 30 Jun 01:34:30 01:38:33 28° 63° (ENE) 01:42:37 436.000
AO-85 30 Jun 01:35:24 01:37:31 12° 348° (NNW) 01:39:36 145.980
ITUPSAT 1 30 Jun 01:36:34 01:40:40 29° 64° (ENE) 01:44:48 437.325
ANTELSAT 30 Jun 01:37:47 01:38:56 11° 305° (NW) 01:40:05 437.575/2403.000
BUGSAT 1 30 Jun 01:57:10 02:01:06 48° 290° (WNW) 02:05:06 437.445
SPROUT 30 Jun 01:57:23 01:59:32 14° 271° (W) 02:01:41 437.525
Gurwin Techsat 1B 30 Jun 02:04:04 02:07:24 17° 88° (E) 02:10:42 435.225
BEESAT 3 30 Jun 02:09:43 02:12:42 21° 115° (ESE) 02:15:42 437.485
NANOSAT C BR1 30 Jun 02:24:59 02:27:21 15° 301° (WNW) 02:29:41 145.865
QB50P1 30 Jun 02:29:15 02:31:14 13° 302° (WNW) 02:33:13 145.935-145.965
POPSAT HIP 1 30 Jun 02:32:48 02:34:35 12° 303° (WNW) 02:36:23 437.405
Cosmos 2491 30 Jun 02:33:13 02:41:26 43° 291° (WNW) 02:49:40 435.465 / 435.565
SWISSCUBE 30 Jun 02:46:13 02:50:59 64° 258° (WSW) 02:55:47 437.505
DUCHIFAT 1 30 Jun 02:46:16 02:46:54 10° 304° (NW) 02:47:31 145.980
BEESAT 2 30 Jun 02:50:16 02:53:44 30° 118° (ESE) 02:57:15 435.950
PCSat 30 Jun 03:04:26 03:09:52 78° 305° (NW) 03:15:20 145.827
O/OREOS (USA 219) 30 Jun 03:05:21 03:09:48 65° 112° (ESE) 03:14:15 437.305
BEESAT 30 Jun 03:11:40 03:16:11 41° 262° (W) 03:20:44 436.000
Oscar 19 30 Jun 03:12:22 03:17:27 66° 289° (WNW) 03:22:31 437.125/150
ITUPSAT 1 30 Jun 03:13:50 03:18:22 40° 262° (W) 03:22:55 437.325
AO-85 30 Jun 03:17:57 03:20:10 13° 13° (NNE) 03:22:17 145.980
JAS-2 30 Jun 03:19:27 03:24:15 28° 300° (WNW) 03:28:45 435.910
Cosmos 2504 30 Jun 03:20:34 03:27:40 28° 281° (W) 03:34:34 435.465 / 435.565
GONETS M04 30 Jun 03:24:21 03:28:38 14° 47° (NE) 03:32:54
KKS-1 30 Jun 03:33:12 03:37:27 48° 70° (ENE) 03:41:44 437.445
MOZHAYETS 4 30 Jun 03:35:36 03:40:01 46° 70° (ENE) 03:44:28
ITAMSAT 1 30 Jun 03:38:33 03:43:28 39° 97° (E) 03:48:20 435.822/435.867
Gurwin Techsat 1B 30 Jun 03:42:37 03:47:58 78° 287° (WNW) 03:53:17 435.225
BEESAT 3 30 Jun 03:46:17 03:50:06 48° 314° (NW) 03:53:57 437.485
STARS 30 Jun 04:00:44 04:04:55 48° 70° (ENE) 04:09:08 437.465
Cosmos 2499 30 Jun 04:05:25 04:10:50 17° 50° (NE) 04:16:05 435.465 / 435.565
AIST 1 30 Jun 04:08:18 04:12:31 56° 77° (ENE) 04:16:41
AO-7 30 Jun 04:25:14 04:33:09 43° 99° (E) 04:40:58 29.400- 29.500
BEESAT 2 30 Jun 04:27:50 04:31:32 36° 317° (NW) 04:35:15 435.950
Cosmos 2491 30 Jun 04:39:42 04:41:20 11° 319° (NW) 04:42:59 435.465 / 435.565
O/OREOS (USA 219) 30 Jun 04:46:23 04:49:39 19° 312° (NW) 04:52:55 437.305
HORYU 2 30 Jun 04:47:52 04:49:29 12° 87° (E) 04:51:07 437.375
PCSat 30 Jun 04:50:06 04:54:09 21° 327° (NNW) 04:58:14 145.827
Oscar 19 30 Jun 04:54:04 04:55:50 12° 308° (NW) 04:57:36 437.125/150
AO-85 30 Jun 04:57:55 05:02:10 31° 38° (NE) 05:06:05 145.980
